FW9375 Weather Reports


time (UTC)temp
C
wind
direction
speed
KPH
gust
KPH
rain 1hr
cm
rain 24hr
cm
rain mn
cm
humidity
%
barometer
mb
20260906010032 22 0.0 0.0 0.00 0.00 0.00 95 1024.2
20260906003031 22 0.0 0.0 0.00 0.00 0.00 92 1024.2
20260906001531 22 0.0 0.0 0.00 0.00 0.00 92 1024.2
20260906000032 22 0.0 0.0 0.00 0.00 0.00 87 1024.1
20260905234531 22 0.0 0.0 0.00 0.00 0.00 87 1024.0
20260905233031 22 0.0 0.0 0.00 0.00 0.00 87 1023.9
20260905231531 22 0.0 0.0 0.00 0.00 0.00 87 1023.9
20260905223032 22 0.0 0.0 0.00 0.00 0.00 80 1023.6
20260905220032 22 0.0 0.0 0.00 0.00 0.00 74 1023.4
20260905214531 23 0.0 0.0 0.00 0.00 0.00 71 1023.4
20260905213031 23 0.0 0.0 0.00 0.00 0.00 67 1023.1
20260905211531 23 0.0 0.0 0.00 0.00 0.00 64 1022.9
20260905210032 23 0.0 0.0 0.00 0.00 0.00 62 1022.7
20260905204532 23 0.0 0.0 0.00 0.00 0.00 61 1022.4
20260905203032 24 0.0 0.0 0.00 0.00 0.00 60 1022.4
20260905201532 24 0.0 0.0 0.00 0.00 0.00 59 1022.3
20260905200032 24 0.0 0.0 0.00 0.00 0.00 59 1022.1
20260905194531 24 0.0 0.0 0.00 0.00 0.00 59 1022.0
20260905193031 24 0.0 0.0 0.00 0.00 0.00 59 1021.9
20260905191531 24 0.0 0.0 0.00 0.00 0.00 57 1021.7
20260905190032 25 0.0 0.0 0.00 0.00 0.00 55 1021.4
20260905181531 25 0.0 0.0 0.00 0.00 0.00 51 1020.8
20260905180032 25 0.0 0.0 0.00 0.00 0.00 50 1020.6
20260905174531 26 0.0 0.0 0.00 0.00 0.00 49 1020.5
20260905173032 26 0.0 0.0 0.00 0.00 0.00 47 1020.3
20260905164532 27 0.0 0.0 0.00 0.00 0.00 43 1019.5
20260905163031 28 0.0 0.0 0.00 0.00 0.00 42 1019.3
20260905161531 29 0.0 0.0 0.00 0.00 0.00 41 1019.3
20260905160032 29 0.0 0.0 0.00 0.00 0.00 41 1019.2
20260905154532 30 0.0 0.0 0.00 0.00 0.00 40 1019.0
20260905153032 30 0.0 0.0 0.00 0.00 0.00 38 1019.0
20260905151532 31 0.0 0.0 0.00 0.00 0.00 37 1018.7
20260905150032 31 0.0 0.0 0.00 0.00 0.00 38 1018.6
20260905144531 31 0.0 0.0 0.00 0.00 0.00 37 1018.6
20260905143033 31 0.0 0.0 0.00 0.00 0.00 37 1018.4
20260905140031 31 0.0 0.0 0.00 0.00 0.00 37 1018.5
20260905134532 31 0.0 0.0 0.00 0.00 0.00 37 1018.4
20260905133032 31 0.0 0.0 0.00 0.00 0.00 37 1018.5
20260905124532 31 0.0 0.0 0.00 0.00 0.00 38 1018.7
20260905123031 31 0.0 0.0 0.00 0.00 0.00 38 1018.8
20260905120032 31 0.0 0.0 0.00 0.00 0.00 39 1018.8
20260905114533 31 0.0 0.0 0.00 0.00 0.00 40 1018.8
20260905113031 31 0.0 0.0 0.00 0.00 0.00 40 1018.6
20260905111532 31 0.0 0.0 0.00 0.00 0.00 42 1018.6
20260905110032 32 0.0 0.0 0.00 0.00 0.00 48 1018.2
20260905104532 32 0.0 0.0 0.00 0.00 0.00 51 1018.3
20260905103032 31 0.0 0.0 0.00 0.00 0.00 51 1018.4
20260905101531 31 0.0 0.0 0.00 0.00 0.00 53 1018.3
20260905100032 31 0.0 0.0 0.00 0.00 0.00 51 1018.2
20260905093032 31 0.0 0.0 0.00 0.00 0.00 48 1017.9
20260905091531 31 0.0 0.0 0.00 0.00 0.00 44 1017.5
20260905090032 31 0.0 0.0 0.00 0.00 0.00 42 1017.4
20260905084531 30 0.0 0.0 0.00 0.00 0.00 43 1017.3
20260905083032 30 0.0 0.0 0.00 0.00 0.00 43 1017.3
20260905081532 30 0.0 0.0 0.00 0.00 0.00 43 1017.1
20260905080032 29 0.0 0.0 0.00 0.00 0.00 45 1017.0
20260905074531 29 0.0 0.0 0.00 0.00 0.00 48 1017.0
20260905073032 28 0.0 0.0 0.00 0.00 0.00 50 1016.7
20260905071532 27 0.0 0.0 0.00 0.00 0.00 53 1016.6
20260905070032 27 0.0 0.0 0.00 0.00 0.00 56 1016.5
20260905064531 26 0.0 0.0 0.00 0.00 0.00 63 1016.4
20260905063032 25 0.0 0.0 0.00 0.00 0.00 68 1016.4
20260905061532 25 0.0 0.0 0.00 0.00 0.00 70 1016.4
20260905060031 23 0.0 0.0 0.00 0.00 0.00 76 1016.4
20260905054531 23 0.0 0.0 0.00 0.00 0.00 82 1016.3
20260905053031 22 0.0 0.0 0.00 0.00 0.00 84 1016.2
20260905051532 22 0.0 0.0 0.00 0.00 0.00 86 1016.0
20260905050031 21 0.0 0.0 0.00 0.00 0.00 88 1016.0
20260905044532 21 0.0 0.0 0.00 0.00 0.00 89 1016.0
20260905043031 21 0.0 0.0 0.00 0.00 0.00 91 1016.0
20260905041531 21 0.0 0.0 0.00 0.00 0.00 93 1016.0
20260905040032 21 0.0 0.0 0.00 0.00 0.00 96 1016.0
20260905034531 20 0.0 0.0 0.00 0.00 0.00 99 1015.8
20260905033031 20 0.0 0.0 0.00 0.00 0.00 10 1015.7
20260905031532 20 0.0 0.0 0.00 0.00 0.00 10 1015.7
20260905030031 20 0.0 0.0 0.00 0.00 0.00 10 1015.8
20260905024531 20 0.0 0.0 0.00 0.00 0.00 10 1015.7
20260905023031 20 0.0 0.0 0.00 0.00 0.00 10 1015.9
20260905021532 20 0.0 0.0 0.00 0.00 0.00 10 1015.9
20260905020032 20 0.0 0.0 0.00 0.00 0.00 10 1015.9
20260905013032 20 0.0 0.0 0.00 0.00 0.00 10 1015.9
20260905011532 20 0.0 0.0 0.00 0.00 0.00 10 1015.9